www.pogodaiklimat.ru

Погода и климат >> Архив погоды >> Украина >> Турка


ПОГОДА в Турке

  • Прогноз погоды в Турке
  • Монитор погоды в Турке

АРХИВ ПОГОДЫ в Турке

Время (UTC), дата Ветер
(напр.,м/с)
 
Видим.   Явления Облачность Т
(С)
Тd
(С)
f
(%)
Тe
(С)
Тes
(С)
Комфортность P
(гПа)
Po
(гПа)
Тmin
(С)
Tmax
(С)
R
(мм)
R24
(мм)
S
(см)
06 15.08 СВ 1 10 км 8/5 600 м
[Sc Ac lent]
+12.1 +10.3 89 +12 +13 1019.1 949.8 +10.6 5
09 15.08 СВ 2 10 км 8/5 600 м
[Sc Ac lent Ci fib]
+14.9 +9.5 70 +15 +19 1017.7 949.1
12 15.08 В 3 10 км 9/9 600 м
[Sc]
+15.3 +9.4 68 +15 +16 1017.6 949.1
15 15.08 В 1 10 км 9/8 600 м
[Sc Ac lent]
+14.6 +10.4 76 +15 +16 1017.2 948.6
18 15.08 штиль 0 10 км 8/6 600 м
[Sc Ac lent Ci fib]
+14.0 +11.5 85 +14 +14 1018.3 949.5 +17.0
21 15.08 штиль 0 10 км 6/5 600 м
[Sc Ac lent Ci fib]
+9.9 +9.1 95 +9 +9 1019.0 949.2
00 16.08 штиль 0 4000 м дымка 3/0
[Ac lent Ci fib]
+8.4 +8.0 97 +7 +7 1019.5 949.3
03 16.08 штиль 0 500 м туман ?/? +7.5 +7.5 100 +6 +6 1020.5 950.0
06 16.08 штиль 0 500 м туман ?/? +7.8 +7.8 100 +7 +7 1020.7 950.2 +7.3
09 16.08 В 1 20 км {туман} 4/3 600 м
[Cu hum Ac lent Ci fib]
+17.0 +10.2 64 +18 +28 1016.4 948.4
12 16.08 С 1 20 км {туман} 8/4 600 м
[Cu hum Ac lent Ci fib]
+19.0 +8.6 51 +21 +27 комфорт 1015.6 948.1
15 16.08 СВ 2 20 км 4/3 600 м
[Cu hum Ac lent Ci fib]
+19.5 +8.2 48 +21 +23 комфорт 1014.7 947.4
18 16.08 штиль 0 10 км 1/0
[Ci fib]
+14.7 +8.9 68 +14 +14 1017.4 948.8 +20.3
21 16.08 штиль 0 10 км ясно +8.3 +7.5 95 +7 +7 1019.5 949.2
00 17.08 З 1 4000 м дымка ясно +5.7 +5.3 97 +4 +4 1020.3 949.4
03 17.08 штиль 0 4000 м дымка ясно +4.7 +4.3 97 +4 +4 1020.8 949.6
06 17.08 штиль 0 4000 м 4/1 600 м
[Sc Ac lent Ci fib]
+7.0 +6.4 96 +6 +10 1021.1 950.4 +4.3
09 17.08 ЮВ 1 20 км 3/1 600 м
[Cu med, cong Ci fib]
+19.0 +8.0 49 +21 +33 комфорт 1017.4 949.8
12 17.08 В 1 20 км 6/3 600 м
[Cu med, cong Ac lent Ci fib]
+21.3 +7.9 42 +22 +30 комфорт 1015.7 948.7
15 17.08 штиль 0 20 км 5/0
[Ac As Ci fib]
+21.7 +9.2 45 +23 +26 комфорт 1015.3 948.4
18 17.08 З 1 10 км 8/1 600 м
[Sc Ac As Ci fib]
+16.9 +11.4 70 +18 +18 1016.4 948.4 +22.4
21 17.08 штиль 0 10 км 3/0
[Ac lent Ci fib]
+11.9 +10.6 92 +11 +11 1017.8 948.5
00 18.08 штиль 0 10 км 4/0
[Ac As Ci fib]
+8.8 +8.0 95 +8 +8 1018.7 948.6
03 18.08 З 1 10 км 3/0
[Ac lent Ci fib]
+7.6 +7.0 96 +7 +7 1018.8 948.4
06 18.08 штиль 0 10 км 4/0
[Ac lent Ci fib]
+13.1 +11.2 88 +13 +16 1017.3 948.3 +7.0
09 18.08 Ю 4 20 км 6/3 600 м
[Sc Ac lent Ci fib]
+21.1 +12.0 56 +23 +28 комфорт 1015.4 948.4
12 18.08 ЮЗ 4 20 км 8/3 600 м
[Sc Ac lent Ci fib]
+22.5 +13.0 55 +25 +29 комфорт 1014.9 948.2
15 18.08 ЮЗ 3 20 км 5/3 600 м
[Sc Ac lent Ci fib]
+22.3 +13.6 58 +25 +27 комфорт 1014.8 948.1
18 18.08 ЮВ 3 10 км 3/0
[Ac lent Ci fib]
+19.0 +12.7 67 +20 +20 1015.8 948.3 +23.1
21 18.08 В 1 10 км ясно +16.2 +12.7 80 +17 +17 1016.5 948.3
00 19.08 штиль 0 10 км ясно +13.1 +11.3 89 +13 +13 1018.3 949.3
03 19.08 С 1 10 км ясно +12.6 +10.8 89 +13 +13 1019.3 950.1
06 19.08 штиль 0 10 км ясно +17.6 +12.9 74 +18 +22 1018.2 950.2 +11.8
09 19.08 Ю 4 20 км ясно +25.2 +14.3 51 +28 +36 жарко 1017.1 950.9
12 19.08 ЮЗ 3 20 км ясно +27.4 +14.7 46 +30 +40 жарко 1016.2 950.5
15 19.08 ЮЗ 1 20 км ясно +27.8 +15.8 48 +31 +35 душно 1016.6 950.9
18 19.08 штиль 0 10 км ясно +22.9 +13.6 56 +26 +26 жарко 1018.6 951.8 +28.0
21 19.08 штиль 0 10 км ясно +15.3 +13.8 91 +15 +15 1021.5 952.8
00 20.08 штиль 0 10 км ясно +12.5 +12.0 97 +12 +12 1021.9 952.5
03 20.08 штиль 0 10 км ясно +10.8 +10.2 96 +10 +10 1022.6 952.7
06 20.08 штиль 0 20 км ясно +14.2 +12.4 89 +14 +19 1023.2 954.1 +10.5
09 20.08 штиль 0 20 км ясно +26.5 +17.0 56
12 20.08 СВ 2 20 км 3/1 600 м
[Cu med, cong Ci fib]
+28.5 +16.4 48 +32 +42 душно 1018.8 953.1
15 20.08 СВ 2 20 км 4 балла +27.7 +17.2 53
18 20.08 штиль 0 20 км 1/0
[Ci fib]
+22.4 +17.7 75 +27 +27 душно 1020.2 953.1 +29.0
21 20.08 штиль 0 10 км 2 балла +17.0 +15.9 93
00 21.08 штиль 0 500 м туман ?/? +14.3 +14.3 100 +14 +14 1021.6 952.6
03 21.08 штиль 0 500 м туман н/о +12.4 +12.4 100
06 21.08 штиль 0 10 км {туман} ясно +16.3 +15.3 94 +16 +21 1022.2 953.6 +11.8
09 21.08 ЮЗ 2 20 км 2 балла +27.8 +17.0 52
12 21.08 С 3 20 км 8/5 600 м
[Sc Ac lent Ci fib]
+25.4 +18.3 65 +30 +33 душно 1020.0 953.6
15 21.08 СЗ 4 10 км 10 баллов +19.2 +16.2 83
18 21.08 СЗ 3 10 км 10/10 600 м
[Sc]
+16.3 +14.5 89 +16 +16 1026.5 957.7 +29.3
21 21.08 СЗ 3 10 км 10 баллов +14.8 +13.8 94
00 22.08 С 2 10 км 10 баллов +13.9 +13.3 96
03 22.08 С 1 10 км 10 баллов +13.0 +12.1 94

 

Местоположение метеостанции Турка (Львовская область, Украина): широта 49.12 долгота 23.03 высота над уровнем моря 588 м.

В архиве по умолчанию представлена погода в Турке за последнюю неделю. Архивные данные за месяц целиком и за предыдущие месяцы, начиная с января 2011 года, Вы можете получить, выбрав интересующий диапазон дат из раскрывающегося списка и нажав кнопку "Ввод!".


*Определитесь, кто Вы:
робот инопланетянин человек

Внимание! Время в таблицах - всемирное. Для получения местного времени необходимо прибавить поправку, которая равна 2 ч.

Смотрите также архив погоды в соседних городах и на ближайших метеорологических станциях:

Погода в Дрогобыче (Львовская область, Украина) (44 км)
Погода в Великом Березном (Закарпатская область, Украина) (48 км)
Погода в Плае (Черновицкая область, Украина) (50 км)
Погода в Нижнем Студеном (Закарпатская область, Украина) (53 км)
Погода в Стрые (Львовская область, Украина) (58 км)
Погода в Славском (Львовская область, Украина) (59 км)
Погода в Перечине (Закарпатская область, Украина) (60 км)
Погода в Леско (Польша) (63 км)
Погода в Долине (Ивано-Франковская область, Украина) (73 км)
Погода в Мостиске (Львовская область, Украина) (76 км)

Пояснения к столбцам:

Ветер - указаны скорость ветра в м/с - средняя за 10 мин, порывы в срок и между сроками (в фигурных скобках) и направление, откуда дует ветер: С - северный, СВ - северо-восточный, В - восточный, ЮВ - юго-восточный, Ю - южный, ЮЗ - юго-западный, З - западный, СЗ - северо-западный.
Видимость - горизонтальная дальность видимости в метрах или километрах. При видимости от 1 до 10 км при отсутствии осадков обычно наблюдается дымка, при ухудшении видимости до 1 км и менее - туман. В сухую погоду видимость может ухудшаться дымом, пылью или мглою.
Явления - указаны атмосферные явления, наблюдавшиеся в срок или в последний час перед сроком; фигурными скобками обозначены явления, наблюдавшиеся между сроками (за 1-3 часа до срока); квадратными скобками обозначены град или гололедные отложения с указанием их диаметра в мм.
Облачность - указаны через наклонную черту общая и нижняя облачность в баллах и высота нижней границы облаков в метрах; квадратными скобками обозначены формы облаков: Ci - перистые, Cs - перисто-слоистые, Cc - перисто-кучевые, Ac - высококучевые, As - высокослоистые, Sc - слоисто-кучевые, Ns - слоисто-дождевые, Cu - кучевые, Cb - кучево-дождевые. Подробнее классификацию облаков см. в Атласе облаков (PDF).
T - Температура воздуха - температура, измеренная на высоте 2 м над землей.
Td - Температура точки росы - температура, при понижении до которой содержащийся в воздухе водяной пар достигнет насыщения.
f - Относительная влажность воздуха - влажноcть воздуха, измеренная на высоте 2 м над землей.
Te - Эффективная температура - температура, которую ощущает одетый по сезону человек в тени. Характеристика душности погоды. При расчете учитывается влияние влажности воздуха и скорости ветра на теплоощущения человека.
Tes - Эффективная температура на солнце - температура, которую ощущает человек, с поправкой на солнечный нагрев. Характеристика знойности погоды. Зависит от высоты солнца над горизонтом, облачности и скорости ветра. Ночью, в пасмурную погоду, а также при ветре 12 м/с и более поправка равна нулю.
P - Атмосферное давление - приведенное к уровню моря атмосферное давление.
Po - Атмосферное давление - измеренное на уровне метеостанции атмосферное давление.
Tmin - Минимальная температура - минимум температуры воздуха на высоте 2 м над землей.
Tmax - Максимальная температура - максимум температуры воздуха на высоте 2 м над землей.
R - Количество осадков - Количество выпавших осадков за период времени, мм. При наведении курсора мыши на число - период времени, за который выпало указанное количество осадков.
R24 - Количество осадков - Количество выпавших осадков за 24 часа, мм.
S - Снежный покров - Высота снежного покрова, см. При наведении курсора мыши на число - состояние снежного покрова и степень покрытия местности в баллах.